sat.trackr.live / text

‹ back to catalog

UNKNOWN

NORAD 82363

UNKNOWN UNKNOWN UNKNOWN

§ Identity

Operator
Country
Launch date
Launch site
Launch vehicle
Mass (kg)
RCS (m²)

External: N2YO · Heavens-Above

§ Orbital elements

Epoch: 2026-09-11T04:39:26.303616Z

Period
109.44 min
Inclination
66.9395°
Eccentricity
0.0455373
Mean motion
13.15799285 rev/d
Perigee alt
855.7 km
Apogee alt
1,545.9 km
Semi-major
7,578.9 km
B*
5.0742e-4
RAAN
330.5022°
Arg perigee
350.3296°
Mean anomaly
8.9192°
Rev number
32,610

§ Raw data

UNKNOWN1 82363U          26254.19405444  .00000263  00000+0  50742-3 0  99932 82363  66.9395 330.5022 0455373 350.3296   8.9192 13.15799285326103

JSON: /api/v1/satellites/82363 · /tle

For live sub-satellite position, see the globe view (requires WebGL).

§ Visibility from observer

Set your observer location to see the next 7 days of passes ≥ 10°. The values pass through the URL so the page stays shareable.

No JS? Fill the form by hand. The geolocation button needs JavaScript.